STARLINK-11433, 62008

Orbit data source: Space-Track

STARLINK-11433, 62008 is a payload satellite owned by SpaceX/Seattle (US) in LEO that was launched on Mon, 18 Nov 2024 UTC via an FALCON 9 launch vehicle from the Air Force Western Test Range (AFWTR). Payload-class satellites include a variety of spacecraft equipped with specific instruments for various scientific and technological missions. These include communications satellites like Starlink; space stations such as the ISS; scientific satellites like the Hubble; Earth observation satellites from companies like Planet Labs, Umbra, and HawkEye 360; GPS; miniature CubeSats for education and research; and military/defense satellites.

Loading next visibility...
Identifier
62008, 2024-213A
Orbit
LEO
Country
Flag of USUS
Related business
Manufacturer
SpaceX/Seattle
Mission
Operational Commercial Communications
Bus & Motor
STARLINK V2MD, Unknown motor
Mass
960 kg wet, ~910 kg dry
Launch date (UTC)
2024-11-18 (1 year ago)
Launch vehicle
FALCON 9
Launch site
Air Force Western Test Range (AFWTR)
Object type
Payload
Rocket body
Debris
Shape & HBR
Box + 2 Pan, 18.1 m
Radar Cross Section
36.964 m², Large (>1 m²)

Expand to show TLE details & history
Last TLE update: 15 hours ago

TLE from 15 hours ago
0 STARLINK-11433
1 62008U 24213A   26127.24091483  .00126976  00000-0  10352-2 0  9991
2 62008  53.1574 112.4531 0001075 102.3432 257.7706 15.69751323 84118
Epoch: 2026-05-07T05:46Z
TLE epoch observation values (Epoch: 2026-05-07T05:46:55.041Z)
Latitude
-0.00004°
Longitude
160.63385°
Altitude
360.677 km
Speed
7.694 km/s
True Right ascension
07h 29m 48s
True Declination
0° 00' 00"
Sunlit
Object was in daylight at epoch
Visualization orbit readout
Latitude
Unknown
Longitude
Unknown
Altitude
Unknown
Speed
Unknown
Apparent Right ascension
Unknown
Apparent Declination
Unknown
Sunlit
N/A
Visualization observer readout
Local Sidereal Time
04:38:32
Azimuth
Unknown
Elevation
Unknown
Doppler factor
Unknown
Orbital elements
Apogee altitude
360.594 km
Perigee altitude
359.145 km
Semi-major axis
6,738.007 km
Eccentricity
0.00011
Inclination
53.1574°
RAAN
112.4531°
Arg. of periapsis
102.3432°
True anomaly
257.75856°
Mean anomaly
257.7706°
Eccentric anomaly
257.76458°
Mean motion
3.92415 °/min
Orbital period
91.74 mins
BSTAR
0.0010352
Loading maneuver chart data...
Computing Atmospheric mass density...
Loading historical data...
Loading historical data...
Loading historical data...
Loading historical data...
Loading historical data...
Loading historical data...
Loading historical data...

Documentation

Showing up to 5 results
|